Location: Madrid
(40.4000°N, 3.6830°W)
Time: 12:13:57
(UTC+01:00)

ISS - Pass Details

Date: 15 March 2019
Orbit: 408 x 411 km, 51.6° (Epoch: 24 March)

Event Time Altitude Azimuth Distance (km) Brightness Sun altitude
Exits shadow 05:36:02 42° 15° (NNE) 591 -2.9 -21.7°
Maximum altitude 05:36:18 44° 31° (NNE) 579 -2.8 -21.7°
Drops below altitude 10° 05:39:29 10° 105° (ESE) 1,467 -0.2 -21.1°
Sets 05:41:37 0° 112° (ESE) 2,326 0.8 -20.7°
